{"data":{"norad_id":42969,"epoch":"2026-05-25T01:58:42.720096Z","epoch_age_seconds":64557,"freshness":"FRESH","line1":"1 42969U 17064A   26145.08243889  .00000042  00000+0  41149-4 0  9996","line2":"2 42969  98.7918  87.3794 0001077  77.5286 282.6011 14.19514407446282","mean_motion":14.19514407,"eccentricity":0.0001077,"inclination_deg":98.7918,"raan_deg":87.3794,"arg_perigee_deg":77.5286,"mean_anomaly_deg":282.6011,"bstar":4.1149e-5,"rev_number":44628,"period_min":101.44314090079,"perigee_km":826.21950398096,"apogee_km":827.77148952076,"semimajor_km":7205.1324967509,"source":"CELESTRAK","updated_at":"2026-05-25T13:38:12.827523Z"}}